DW8492 Weather Reports


Display with metric or nautical units.
time (UTC)temp
F
wind
direction
speed
MPH
gust
MPH
rain 1hr
in
rain 24hr
in
rain mn
in
humidity
%
barometer
mb
20260902103026 70 239 0.0 0.0 0.00 0.00 0.00 97 1014.7
20260902101603 70 240 0.0 3.0 0.00 0.00 0.00 97 1014.7
20260902100016 70 228 0.0 0.0 0.00 0.00 0.00 96 1014.7
20260902094552 70 226 0.0 0.0 0.00 0.00 0.00 96 1014.9
20260902093045 69 226 0.0 0.0 0.00 0.00 0.00 97 1014.8
20260902091508 69 226 0.0 0.0 0.00 0.00 0.00 96 1015.0
20260902090052 69 226 0.0 0.0 0.00 0.00 0.00 96 1015.0
20260902084521 68 226 0.0 0.0 0.00 0.00 0.00 96 1014.9
20260902083054 68 226 0.0 0.0 0.00 0.00 0.00 95 1014.8
20260902081514 69 226 0.0 0.0 0.00 0.00 0.00 95 1014.9
20260902080054 69 226 0.0 0.0 0.00 0.00 0.00 95 1015.0
20260902074525 69 226 0.0 0.0 0.00 0.00 0.00 95 1015.1
20260902073108 69 226 0.0 0.0 0.00 0.00 0.00 95 1015.0
20260902071525 69 226 0.0 0.0 0.00 0.00 0.00 94 1015.0
20260902070058 69 226 0.0 0.0 0.00 0.00 0.00 94 1015.1
20260902064527 70 226 0.0 0.0 0.00 0.00 0.00 94 1015.0
20260902063110 70 226 0.0 0.0 0.00 0.00 0.00 93 1015.1
20260902061528 70 226 0.0 0.0 0.00 0.00 0.00 93 1015.1
20260902060109 71 226 0.0 0.0 0.00 0.00 0.00 92 1014.9
20260902054534 71 226 0.0 0.0 0.00 0.00 0.00 91 1014.9
20260902053107 72 226 0.0 0.0 0.00 0.00 0.00 91 1014.9
20260902051531 72 226 0.0 0.0 0.00 0.00 0.00 90 1014.8
20260902050111 73 226 0.0 0.0 0.00 0.00 0.00 89 1014.7
20260902044558 73 226 0.0 0.0 0.00 0.00 0.00 88 1014.6
20260902043100 74 226 0.0 1.0 0.00 0.00 0.00 88 1014.6
20260902041534 74 225 0.0 0.0 0.00 0.00 0.00 88 1014.6
20260902040058 74 225 0.0 0.0 0.00 0.00 0.00 87 1014.5
20260902034605 74 225 0.0 0.0 0.00 0.00 0.00 87 1014.5
20260902033006 75 223 0.0 3.0 0.00 0.00 0.00 86 1014.5
20260902031557 75 254 0.0 4.0 0.00 0.00 0.00 86 1014.3
20260902030016 75 257 0.0 2.0 0.00 0.00 0.00 85 1014.4
20260902024552 76 157 0.0 1.0 0.00 0.00 0.00 84 1014.6
20260902023020 76 157 0.0 1.0 0.00 0.00 0.00 84 1014.5
20260902021524 77 157 0.0 0.0 0.00 0.00 0.00 82 1014.3
20260902020108 77 157 0.0 3.0 0.00 0.00 0.00 82 1014.3
20260902014514 77 156 0.0 2.0 0.00 0.00 0.00 81 1014.3
20260902013051 78 186 0.0 0.0 0.00 0.00 0.00 80 1014.0
20260902011527 78 186 0.0 0.0 0.00 0.00 0.00 79 1014.0
20260902004537 80 186 1.0 6.0 0.00 0.00 0.00 76 1013.7
20260902003002 80 244 0.0 0.0 0.00 0.00 0.00 77 1013.7
20260902001540 81 244 0.0 2.0 0.00 0.00 0.00 75 1013.6
20260902000021 82 245 1.0 6.0 0.00 0.00 0.00 73 1013.9
20260901234602 82 224 1.0 3.0 0.00 0.00 0.00 73 1013.9
20260901233013 83 191 0.0 4.0 0.00 0.00 0.00 72 1014.0
20260901231556 84 232 1.0 4.0 0.00 0.00 0.00 71 1013.7
20260901230021 85 251 1.0 6.0 0.00 0.00 0.00 69 1013.7
20260901224557 86 220 1.0 4.0 0.00 0.00 0.00 66 1013.7
20260901223025 86 241 1.0 6.0 0.00 0.00 0.00 65 1013.3
20260901221609 87 230 1.0 7.0 0.00 0.00 0.00 63 1013.6
20260901220018 87 235 3.0 7.0 0.00 0.00 0.00 62 1013.8
20260901214558 88 215 3.0 7.0 0.00 0.00 0.00 59 1013.7
20260901213107 89 216 2.0 7.0 0.00 0.00 0.00 60 1013.7
20260901211535 89 173 2.0 6.0 0.00 0.00 0.00 60 1013.6
20260901210004 89 260 2.0 7.0 0.00 0.00 0.00 61 1013.4
20260901204542 88 216 2.0 11.0 0.00 0.00 0.00 62 1013.4
20260901203008 89 243 3.0 9.0 0.00 0.00 0.00 60 1013.3
20260901201548 89 236 3.0 7.0 0.00 0.00 0.00 59 1013.3
20260901200022 89 227 1.0 8.0 0.00 0.00 0.00 63 1013.5
20260901194604 89 251 4.0 8.0 0.00 0.00 0.00 60 1013.5
20260901193023 90 213 1.0 9.0 0.00 0.00 0.00 60 1013.6
20260901191605 89 177 2.0 9.0 0.00 0.00 0.00 61 1013.8
20260901190044 90 175 3.0 8.0 0.00 0.00 0.00 59 1013.9
20260901184502 89 203 3.0 9.0 0.00 0.00 0.00 63 1013.9
20260901183100 89 242 3.0 6.0 0.00 0.00 0.00 63 1014.0
20260901181507 89 282 3.0 11.0 0.00 0.00 0.00 63 1014.2
20260901180022 88 248 4.0 11.0 0.00 0.00 0.00 63 1014.4
20260901174559 89 218 4.0 10.0 0.00 0.00 0.00 64 1014.3
20260901173201 89 277 2.0 9.0 0.00 0.00 0.00 65 1014.4
20260901171547 88 242 3.0 10.0 0.00 0.00 0.00 67 1014.5
20260901170108 87 159 1.0 8.0 0.00 0.00 0.00 68 1014.5
20260901164532 87 210 3.0 7.0 0.00 0.00 0.00 69 1014.6
20260901163002 86 198 1.0 7.0 0.00 0.00 0.00 73 1014.5
20260901161541 85 207 2.0 7.0 0.00 0.00 0.00 73 1014.8
20260901160105 84 309 2.0 6.0 0.00 0.00 0.00 73 1014.8
20260901154526 84 252 2.0 9.0 0.00 0.00 0.00 73 1014.8
20260901151524 84 223 1.0 6.0 0.00 0.00 0.00 76 1014.6
20260901150103 82 211 2.0 7.0 0.00 0.00 0.00 78 1014.5
20260901144527 81 240 2.0 7.0 0.00 0.00 0.00 80 1014.6
20260901143002 79 240 0.0 5.0 0.00 0.00 0.00 84 1014.7
20260901141540 78 279 2.0 5.0 0.00 0.00 0.00 84 1014.7
20260901140100 78 214 2.0 6.0 0.00 0.00 0.00 84 1014.7
20260901134525 78 188 1.0 5.0 0.00 0.00 0.00 86 1014.7
20260901133027 77 209 1.0 6.0 0.00 0.00 0.00 88 1014.8
20260901131558 76 279 1.0 4.0 0.00 0.00 0.00 89 1014.7
20260901130128 76 229 1.0 5.0 0.00 0.00 0.00 89 1014.9
20260901123041 75 184 2.0 4.0 0.00 0.00 0.00 90 1015.2
20260901121501 74 232 0.0 3.0 0.00 0.00 0.00 91 1015.1
20260901120041 74 219 1.0 4.0 0.00 0.00 0.00 91 1015.1
20260901114505 74 168 0.0 5.0 0.00 0.00 0.00 92 1014.9
20260901113154 73 235 0.0 3.0 0.00 0.00 0.00 92 1015.0
20260901111504 73 225 0.0 4.0 0.00 0.00 0.00 92 1014.9
20260901110042 73 212 1.0 5.0 0.00 0.00 0.00 93 1014.9
20260901104506 73 238 0.0 2.0 0.00 0.00 0.00 93 1014.8